Showing default

QIANFAN-96, 66038

Orbit data source: Space-Track

QIANFAN-96, 66038 is a Chinese payload satellite in LEO that was launched on Fri, 17 Oct 2025 UTC via a CHANG ZHENG 6A launch vehicle from the Taiyaun Space Center, China (TSC). Payload-class satellites include a variety of spacecraft equipped with specific instruments for various scientific and technological missions. These include communications satellites like Starlink; space stations such as the ISS; scientific satellites like the Hubble; Earth observation satellites from companies like Planet Labs, Umbra, and HawkEye 360; GPS; miniature CubeSats for education and research; and military/defense satellites.

Loading next visibility...
Identifier
66038, 2025-233F
Orbit
LEO
Country
Flag of CNCN / PRC
Related business
Manufacturer
SECM
Mission
Operational Commercial Communications
Bus & Motor
QIANFAN, Unknown motor
Mass
267 kg wet, ~267 kg dry
Launch date (UTC)
2025-10-17 (8 months ago)
Launch vehicle
CHANG ZHENG 6A
Launch site
Taiyaun Space Center, China (TSC)
Object type
Payload
Rocket body
Debris
Shape & HBR
Box + 1 Pan, 14.5 m
Radar Cross Section
13.200 m², Large (>1 m²)

Expand to show TLE details & history
Last TLE update: 10 hours ago

TLE from 10 hours ago
0 QIANFAN-96
1 66038U 25233F   26177.57622936  .00000104  00000-0  14234-3 0  9993
2 66038  88.9997  42.2558 0001773  87.1964 272.9390 13.51013261 34444
Epoch: 2026-06-26T13:49Z
TLE epoch observation values (Epoch: 2026-06-26T13:49:46.216Z)
Latitude
-0.00004°
Longitude
-79.88952°
Altitude
1,071.419 km
Speed
7.316 km/s
True Right ascension
02h 49m 01s
True Declination
0° 00' 00"
Sunlit
Object was in daylight at epoch
Visualization orbit readout
Latitude
Unknown
Longitude
Unknown
Altitude
Unknown
Speed
Unknown
Apparent Right ascension
Unknown
Apparent Declination
Unknown
Sunlit
N/A
Visualization observer readout
Local Sidereal Time
10:58:43
Azimuth
Unknown
Elevation
Unknown
Doppler factor
Unknown
Orbital elements
Apogee altitude
1,066.904 km
Perigee altitude
1,064.264 km
Semi-major axis
7,443.721 km
Eccentricity
0.00018
Inclination
88.9997°
RAAN
42.2558°
Arg. of periapsis
87.1964°
True anomaly
272.91871°
Mean anomaly
272.939°
Eccentric anomaly
272.92885°
Mean motion
3.37954 °/min
Orbital period
106.52 mins
BSTAR
0.00014234
Loading maneuver chart data...
Computing Atmospheric mass density...
Loading historical data...
Loading historical data...
Loading historical data...
Loading historical data...
Loading historical data...
Loading historical data...
Loading historical data...

Documentation

Showing up to 5 results
|